CAPE
39 0 0 0 0 0 0 0 0 0 0 0 0 0 0 0 0 0 0 0 0 0 0 0 0 0 0 0 0 0 0 0
34 0 0 0 0 0 0 0 0 0 0 0 0 0 0 0 0 0 0 0 0 0 0 0 0 0 0 0 0 0 0 0
0 0 0 0 0 0 0 0 0 0 0 0 0 0 0 0 0 0 0 0 0 0 0 0 0 0 0 0 0 0 0 0
0 0 0 0 0 0 0 0 0 0 0 0 0 0 0 0 0 0 0 0 0 0 0 0 0 0 0 0 0 0 0 0
0 0 0 0 0 0 0 0 0 0 0 0 0 0 0 0 0 0 0 0 0 0 0 0 0 0 0 0 0 0 0 0
0 0 0 0 0 0 0 0 0 0 0 0 0 0 0 0 0 0 0 0 0 0 0 0 0 0 0 0 0 0 0 0
0 0 0 0 0 0 0 0 0 0 0 0 0 0 0 0 0 0 0 0 0 0 0 0 0 0 2 0 0 0 0 0
0 0 0 0 0 0 0 0 0 0 0 0 0 0 0 0 0 0 0 0 0 0 0 0 0 3 1 0 0 0 0 0
0 0 0 0 0 0 0 0 0 0 0 0 0 0 0 0 0 0 0 0 0 0 0 0 2 1 0 0 0 0 0 0
0 0 0 0 0 0 0 0 0 0 0 0 0 0 0 0 0 0 0 0 0 0 0 0 0 0 0 0 0 0 0 0
0 0 0 0 0 0 0 0 0 0 0 0 0 0 0 0 0 0 0 0 0 0 1 0 0 0 0 0 0 0 0 0
0 0 0 0 0 0 0 0 0 0 0 0 0 0 0 0 0 0 0 0 0 2 1 0 0 0 0 0 0 0 0 0
0 0 0 0 0 0 0 0 0 0 0 0 0 0 0 0 0 0 0 0 4 2 2 0 0 0 0 0 0 0 0 0
0 0 0 0 0 0 0 0 1 0 0 0 0 0 0 1 1 0 0 0 5 2 1 0 0 0 0 0 0 0 0 0
0 0 0 0 0 0 2 2 1 2 1 1 2 4 1 0 0 0 1 0 6 3 2 2 1 0 0 0 0 0 0 0
0 0 0 0 0 1 1 2 2 1 3 6 3 1 0 0 0 0 0 0 6 2 0 0 0 1 0 0 0 0 0 0
0 0 0 0 1 2 1 1 1 3 3 2 0 0 0 0 0 0 0 1 4 2 0 0 0 0 0 0 0 0 0 0
15 0 0 0 0 1 1 1 2 1 2 0 0 0 0 0 0 0 0 0 0 0 0 0 0 5 1 0 0 0 0 0
0 5 0 0 0 2 1 0 0 0 0 0 0 0 0 0 0 0 0 0 0 0 0 0 1 6 1 0 0 0 0 0
CIN
-398 -0 -0 -0 -0 -0 -0 -0 -0 -0 -0 -0 -0 -0 -0 -0 -0 -0 -0 -0 -0 -0 -0 -0 -0 -0 -0 -0 -0 -0 -0 -0
-437 -0 -0 -0 -0 -0 -0 -0 -0 -0 -0 -0 -0 -0 -0 -0 -0 -0 -0 -0 -0 -0 -0 -0 -0 -0 -0 -0 -0 -0 -0 -0
-0 -0 -0 -0 -0 -0 -0 -0 -0 -0 -0 -0 -0 -0 -0 -0 -0 -0 -0 -0 -0 -0 -0 -0 -0 -0 -0 -0 -0 -0 -0 -0
-0 -0 -0 -0 -0 -0 -0 -0 -0 -0 -0 -0 -0 -0 -0 -0 -0 -0 -0 -0 -0 -0 -0 -0 -0 -0 -0 -0 -0 -0 -0 -0
-0 -0 -0 -0 -0 -0 -0 -0 -0 -0 -0 -0 -0 -0 -0 -0 -0 -0 -0 -0 -0 -0 -0 -0 -0 -0 -0 -0 -0 -0 -0 -0
-0 -0 -0 -0 -0 -0 -0 -0 -0 -0 -0 -0 -0 -0 -0 -0 -0 -0 -0 -0 -0 -0 -0 -0 -0 -0 -0 -0 -0 -0 -0 -0
-0 -0 -0 -0 -0 -0 -0 -0 -0 -0 -0 -0 -0 -0 -0 -0 -0 -0 -0 -0 -0 -0 -0 -0 -0 -0 -0 -0 -0 -0 -0 -0
-0 -0 -0 -0 -0 -0 -0 -0 -0 -0 -0 -0 -0 -0 -0 -0 -0 -0 -0 -0 -0 -0 -0 -0 -0 -0 -0 -0 -0 -0 -0 -0
-0 -0 -0 -0 -0 -0 -0 -0 -0 -0 -0 -0 -0 -0 -0 -0 -0 -0 -0 -0 -0 -0 -0 -0 -0 -0 -0 -0 -0 -0 -0 -0
-0 -0 -0 -0 -0 -0 -0 -0 -0 -0 -0 -0 -0 -0 -0 -0 -0 -0 -0 -0 -0 -0 -0 -0 -0 -0 -0 -0 -0 -0 -0 -0
-0 -0 -0 -0 -0 -0 -0 -0 -0 -0 -0 -0 -0 -0 -0 -0 -0 -0 -0 -0 -0 -0 -0 -0 -0 -0 -0 -0 -0 -0 -0 -0
-0 -0 -0 -0 -0 -0 -0 -0 -0 -0 -0 -0 -0 -0 -0 -0 -0 -0 -0 -0 -0 -0 -0 -0 -0 -0 -0 -0 -0 -0 -0 -0
-0 -0 -0 -0 -0 -0 -0 -0 -0 -0 -0 -0 -0 -0 -0 -0 -0 -0 -0 -0 -0 -0 -0 -0 -0 -0 -0 -0 -0 -0 -0 -0
-0 -0 -0 -0 -0 -0 -0 -0 -0 -0 -0 -0 -0 -0 -0 -0 -0 -0 -0 -0 -0 -0 -0 -0 -0 -0 -0 -0 -0 -0 -0 -0
-0 -0 -0 -0 -0 -0 -0 -0 -0 -0 -0 -0 -0 -0 -0 -0 -0 -0 -0 -0 -0 -0 -0 -0 -0 -0 -0 -0 -0 -0 -0 -0
-0 -0 -0 -0 -0 -0 -0 -0 -0 -0 -0 -0 -0 -0 -0 -0 -0 -0 -0 -0 -0 -0 -0 -0 -0 -0 -0 -0 -0 -0 -0 -0
-0 -0 -0 -0 -0 -0 -0 -0 -0 -0 -0 -0 -0 -0 -0 -0 -0 -0 -0 -0 -0 -0 -0 -0 -0 -0 -0 -0 -0 -0 -0 -0
-152 -0 -0 -0 -0 -0 -0 -0 -0 -0 -0 -0 -0 -0 -0 -0 -0 -0 -0 -0 -0 -0 -0 -0 -0 -0 -0 -0 -0 -0 -0 -0
-0 -145 -0 -0 -0 -0 -0 -0 -0 -0 -0 -0 -0 -0 -0 -0 -0 -0 -0 -0 -0 -0 -0 -0 -0 -0 -0 -0 -0 -0 -0 -0
Wind_Speed
16 16 15 17 17 18 17 14 16 15 11 10 8 8 8 7 8 8 9 8 9 7 6 7 6 6 6 6 7 7 8 5
15 16 17 17 17 18 19 18 17 14 12 12 10 9 8 8 8 11 10 8 8 8 6 6 6 7 7 6 5 8 8 7
15 16 18 20 20 20 20 20 19 15 12 10 8 11 8 8 8 9 9 9 8 8 7 7 7 6 8 9 8 4 6 9
16 18 20 20 22 21 21 20 20 16 16 12 11 10 10 8 8 8 8 10 9 9 9 8 8 7 7 8 8 9 5 7
13 16 18 20 17 17 18 18 19 16 18 15 19 12 12 8 8 8 8 9 10 10 10 9 8 7 8 8 8 8 6 6
12 15 16 17 17 18 16 18 18 17 17 16 14 14 9 10 9 12 10 9 10 10 10 9 9 7 9 9 9 9 7 6
7 9 12 13 14 15 16 18 17 17 16 17 17 18 16 13 12 10 8 7 8 9 10 9 9 8 9 8 9 9 7 6
2 7 9 12 16 17 16 18 16 16 15 14 16 18 17 16 14 10 11 8 7 9 9 9 8 10 10 8 8 8 7 7
5 2 7 10 13 16 17 16 16 15 15 15 13 16 10 11 10 10 8 7 8 10 9 10 10 11 9 8 5 5 6 7
6 0 6 10 13 14 15 14 13 12 13 12 12 12 13 12 13 11 8 9 9 10 10 10 11 10 8 8 6 6 6 7
6 3 3 7 10 11 11 12 13 13 12 11 11 11 12 12 11 11 10 9 10 10 10 10 10 9 8 7 7 6 6 5
6 7 6 6 8 9 10 11 12 12 11 12 13 12 12 12 11 11 10 10 10 10 9 9 9 9 8 7 8 7 7 7
7 10 11 9 9 9 10 10 13 12 11 13 13 12 12 11 11 11 10 10 10 10 9 9 9 9 8 7 7 7 8 8
7 10 12 11 8 9 10 10 10 11 11 12 12 11 12 11 11 11 10 11 11 11 9 9 8 8 7 7 7 7 7 7
11 9 11 16 17 13 10 10 11 12 13 12 11 11 11 11 11 11 11 11 11 10 9 9 8 8 8 7 6 7 6 7
13 14 7 8 12 12 14 13 10 11 10 9 11 12 11 12 12 11 10 10 10 11 11 9 8 8 7 6 3 6 6 7
15 15 13 15 14 12 15 14 14 13 13 13 13 13 13 11 11 11 10 9 10 10 10 8 8 7 11 8 4 6 6 6
14 16 15 16 18 17 15 14 14 13 15 14 15 15 13 13 11 10 10 9 9 9 9 9 8 8 10 8 7 6 6 5
8 10 15 15 16 17 16 16 15 15 15 14 13 14 14 12 11 10 9 9 9 8 9 8 6 7 10 11 7 7 6 6
Wind_Direction
209 195 181 177 173 167 163 162 155 149 141 133 129 124 121 123 117 109 108 99 95 92 86 82 73 68 59 52 45 41 26 24
205 186 173 171 173 170 169 161 159 153 153 150 145 139 133 123 118 117 112 105 93 91 84 78 71 68 63 51 61 50 42 23
194 179 176 179 177 177 173 168 165 165 160 157 150 143 133 125 120 113 109 104 100 96 92 77 66 74 61 52 48 50 51 31
198 185 186 180 183 180 176 169 167 166 160 145 130 125 129 134 132 121 108 103 95 85 79 77 76 69 65 61 54 50 56 51
210 194 190 192 183 174 173 170 169 163 162 157 157 155 152 146 136 124 113 104 100 95 91 84 75 71 73 67 59 60 55 50
227 205 195 188 176 173 165 165 169 163 165 161 159 154 137 138 133 127 118 109 102 93 88 84 81 80 74 71 69 62 57 60
230 195 178 170 163 162 167 166 164 162 162 163 161 151 147 146 144 138 131 124 114 104 100 90 86 87 81 73 66 63 72 71
100 162 171 168 170 167 165 164 160 160 159 160 159 151 149 148 148 143 139 136 127 119 113 108 102 98 87 74 66 63 66 73
6 135 162 167 167 165 163 161 153 153 149 143 145 143 144 143 143 142 136 137 128 123 114 104 101 97 89 79 74 74 75 72
1 295 174 168 164 155 150 141 136 137 135 134 136 140 141 141 136 130 129 127 124 118 109 102 93 89 95 89 72 69 74 69
69 39 169 164 150 134 124 123 127 124 121 119 121 123 123 125 121 120 123 123 115 116 111 104 99 93 86 88 82 73 78 70
109 104 95 118 115 113 107 108 114 112 109 111 113 115 117 117 114 117 125 118 118 121 117 107 93 83 75 81 85 87 80 68
116 113 106 94 92 94 96 103 110 108 106 111 107 116 120 115 121 126 127 120 129 121 115 102 92 81 72 72 84 75 71 70
144 129 115 103 98 112 117 113 107 109 119 122 123 127 128 134 135 134 133 131 130 121 120 115 102 89 81 66 77 79 75 69
173 161 186 166 156 155 144 140 134 140 137 133 132 137 144 140 139 138 132 132 134 131 122 110 105 89 73 50 70 90 87 81
199 199 195 187 163 159 151 149 145 137 129 136 145 141 140 144 139 131 129 136 140 137 124 122 107 103 79 63 89 88 85 67
204 207 204 182 178 179 159 156 145 148 148 151 152 146 146 141 133 133 137 136 136 124 128 120 106 85 87 78 81 80 63 61
223 214 205 198 184 172 170 158 152 157 154 157 151 146 145 142 141 144 139 131 132 133 129 115 106 104 95 83 66 76 50 45
282 240 217 194 182 176 158 154 156 151 145 145 147 148 144 141 141 142 133 139 140 133 123 120 114 99 110 78 73 88 49 29